Guymon, OK

10:25 AM CST on January 22, 2018 (GMT -0600)
Guymon Municipal

Weather History for KGUY - April, 2013

Change the Weather History Date:

Tuesday, April 2, 2013

  Actual Average Record
Temperature  
Mean Temperature 34 °F 51 °F  
Max Temperature 37 °F 66 °F 90 °F (2011)
Min Temperature 31 °F 36 °F 27 °F (2016)
Degree Days  
Heating Degree Days 31 14  
Month to date heating degree days 55 28  
Since 1 July heating degree days 3846 4076  
Cooling Degree Days 0 0  
Month to date cooling degree days 0 0  
Year to date cooling degree days 0 2  
Moisture  
Dew Point 30 °F    
Average Humidity 84    
Maximum Humidity 92    
Minimum Humidity 75    
Precipitation  
Precipitation 0.07 in 0.05 in 0.26 in (2012)
Month to date precipitation 0.07 0.10  
Year to date precipitation 1.77 2.40  
Snow  
Snow 0.00 in - - ()
Month to date snowfall T  
Since 1 July snowfall 22.0  
Snow Depth 0.00 in    
Sea Level Pressure  
Sea Level Pressure 30.18 in    
Wind  
Wind Speed 9 mph (NE)    
Max Wind Speed 16 mph    
Max Gust Speed 18 mph    
Visibility 7 miles    
Events Rain    
T = Trace of Precipitation, MM = Missing Value Source: NWS Daily Summary

Daily Weather History Graph

Daily Weather History Graph

Search for Another Location

Airport or City:

Trip Planner

Search our weather history database for the weather conditions in past years. The results will help you decide how hot, cold, wet, or windy it might be!

Date:

Astronomy

Apr. 02, 2013 Rise Set
Actual Time 7:30 AM CDT 8:09 PM CDT
Civil Twilight 7:04 AM CDT 8:35 PM CDT
Nautical Twilight 6:33 AM CDT 9:06 PM CDT
Astronomical Twilight 6:01 AM CDT 9:38 PM CDT
Moon 2:09 AM CDT (4/2) 12:29 PM CDT (4/2)
Length of Visible Light 13h 31m
Length of Day
12h 39m
Waning Gibbous, 55% of the Moon is Illuminated
Apr 2
Waning Gibbous
Apr 2
Last Quarter
Apr 10
New
Apr 18
First Quarter
Apr 25
Full

Hourly Weather History & Observations

Time (CDT) Temp. Windchill Dew Point Humidity Pressure Visibility Wind Dir Wind Speed Gust Speed Precip Events Conditions
12:53 AM 33.1 °F 23.4 °F 26.1 °F 75% 30.20 in 10.0 mi NNE 13.8 mph - N/A   Overcast
1:14 AM 32.0 °F 22.5 °F 28.4 °F 87% 30.18 in 10.0 mi NNE 12.7 mph - N/A   Overcast
1:22 AM 32.0 °F 22.5 °F 28.4 °F 87% 30.18 in 10.0 mi NNE 12.7 mph - N/A   Overcast
1:32 AM 32.0 °F 21.6 °F 28.4 °F 87% 30.18 in 10.0 mi NNE 15.0 mph - N/A   Overcast
1:53 AM 32.0 °F 22.1 °F 28.0 °F 85% 30.20 in 10.0 mi NNE 13.8 mph - N/A   Overcast
2:44 AM 32.0 °F 22.5 °F 26.6 °F 80% 30.17 in 10.0 mi NNE 12.7 mph - N/A   Overcast
2:53 AM 32.0 °F 23.0 °F 27.0 °F 82% 30.21 in 10.0 mi NNE 11.5 mph - N/A   Overcast
3:01 AM 32.0 °F 22.1 °F 26.6 °F 80% 30.18 in 10.0 mi NNE 13.8 mph - N/A   Overcast
3:08 AM 32.0 °F 23.0 °F 26.6 °F 80% 30.17 in 10.0 mi NNE 11.5 mph - N/A   Overcast
3:53 AM 32.0 °F 23.6 °F 27.0 °F 82% 30.19 in 8.0 mi North 10.4 mph - N/A   Overcast
4:30 AM 32.0 °F 23.0 °F 28.4 °F 87% 30.17 in 6.0 mi NNE 11.5 mph - N/A   Overcast
4:53 AM 30.9 °F 22.2 °F 28.0 °F 89% 30.19 in 5.0 mi NNE 10.4 mph - N/A   Overcast
5:06 AM 30.2 °F 21.3 °F 28.4 °F 93% 30.17 in 6.0 mi NE 10.4 mph - 0.00 in   Overcast
5:24 AM 30.2 °F 21.9 °F 28.4 °F 93% 30.17 in 5.0 mi NNE 9.2 mph - 0.01 in   Overcast
5:53 AM 30.9 °F 23.5 °F 28.0 °F 89% 30.20 in 5.0 mi NNE 8.1 mph - 0.02 in   Overcast
6:53 AM 30.9 °F 21.7 °F 28.0 °F 89% 30.21 in 7.0 mi NE 11.5 mph - 0.01 in   Overcast
7:26 AM 30.2 °F 22.6 °F 28.4 °F 93% 30.18 in 8.0 mi ENE 8.1 mph - N/A   Overcast
7:53 AM 30.9 °F 23.5 °F 28.0 °F 89% 30.22 in 8.0 mi NE 8.1 mph - N/A   Overcast
8:24 AM 30.2 °F 22.6 °F 28.4 °F 93% 30.19 in 6.0 mi NE 8.1 mph - N/A   Overcast
8:45 AM 30.2 °F 22.6 °F 28.4 °F 93% 30.19 in 6.0 mi ENE 8.1 mph - N/A   Overcast
8:53 AM 30.9 °F 23.5 °F 28.0 °F 89% 30.22 in 7.0 mi NE 8.1 mph - N/A   Overcast
9:16 AM 30.2 °F 23.4 °F 28.4 °F 93% 30.19 in 8.0 mi NE 6.9 mph - N/A   Overcast
9:53 AM 32.0 °F 26.4 °F 28.9 °F 88% 30.23 in 10.0 mi ENE 5.8 mph - N/A   Overcast
10:53 AM 32.0 °F 26.4 °F 28.9 °F 88% 30.23 in 10.0 mi NNE 5.8 mph - N/A   Overcast
11:53 AM 34.0 °F 28.0 °F 30.0 °F 85% 30.23 in 10.0 mi NNE 6.9 mph - N/A   Overcast
12:53 PM 34.0 °F 28.0 °F 30.0 °F 85% 30.21 in 8.0 mi NNE 6.9 mph - N/A   Overcast
1:31 PM 35.6 °F 28.6 °F 32.0 °F 87% 30.18 in 3.0 mi NNE 9.2 mph - N/A   Overcast
1:53 PM 35.1 °F 27.9 °F 32.0 °F 89% 30.21 in 2.5 mi NNE 9.2 mph - 0.00 in   Overcast
2:24 PM 35.6 °F 28.6 °F 33.8 °F 93% 30.17 in 3.0 mi NE 9.2 mph - 0.01 in Rain Light Rain
2:53 PM 35.1 °F 26.9 °F 32.0 °F 89% 30.18 in 4.0 mi ENE 11.5 mph - 0.01 in Rain Light Rain
3:25 PM 35.6 °F 29.2 °F 33.8 °F 93% 30.15 in 5.0 mi ENE 8.1 mph - 0.00 in   Overcast
3:53 PM 36.0 °F 28.5 °F 33.1 °F 89% 30.16 in 8.0 mi NE 10.4 mph - 0.00 in   Overcast
3:56 PM 35.6 °F 27.5 °F 33.8 °F 93% 30.13 in 10.0 mi ENE 11.5 mph - N/A   Overcast
4:14 PM 35.6 °F 27.5 °F 33.8 °F 93% 30.13 in 10.0 mi NE 11.5 mph - N/A   Overcast
4:53 PM 37.0 °F 29.8 °F 33.1 °F 86% 30.15 in 10.0 mi NE 10.4 mph - N/A   Overcast
5:09 PM 35.6 °F 27.5 °F 33.8 °F 93% 30.12 in 10.0 mi ENE 11.5 mph - N/A   Overcast
5:53 PM 36.0 °F 28.0 °F 33.1 °F 89% 30.15 in 10.0 mi ENE 11.5 mph - N/A   Overcast
6:00 PM 35.6 °F 27.5 °F 33.8 °F 93% 30.13 in 9.0 mi ENE 11.5 mph - N/A   Overcast
6:53 PM 35.1 °F 25.9 °F 34.0 °F 96% 30.15 in 4.0 mi NE 13.8 mph - N/A   Overcast
7:02 PM 35.6 °F 27.1 °F 33.8 °F 93% 30.13 in 4.0 mi ENE 12.7 mph - N/A   Overcast
7:38 PM 35.6 °F 28.6 °F 33.8 °F 93% 30.13 in 8.0 mi ENE 9.2 mph - N/A   Overcast
7:53 PM 35.1 °F 27.9 °F 33.1 °F 92% 30.17 in 5.0 mi NE 9.2 mph - N/A   Overcast
8:09 PM 33.8 °F 24.8 °F 32.0 °F 93% 30.13 in 4.0 mi NE 12.7 mph - N/A   Overcast
8:53 PM 33.1 °F 23.9 °F 30.9 °F 92% 30.17 in 4.0 mi NE 12.7 mph - N/A   Overcast
9:50 PM 33.8 °F 25.8 °F 30.2 °F 87% 30.19 in 2.5 mi NE 10.4 mph - N/A   Overcast
9:53 PM 32.0 °F 24.2 °F 30.9 °F 96% 30.22 in 2.5 mi NNE 9.2 mph - N/A   Overcast
10:14 PM 32.0 °F 23.0 °F 30.2 °F 93% 30.20 in 3.0 mi NNE 11.5 mph - 0.00 in   Overcast
10:29 PM 32.0 °F 24.8 °F 30.2 °F 93% 30.21 in 2.5 mi NE 8.1 mph - 0.00 in   Overcast
10:53 PM 32.0 °F 25.6 °F 30.9 °F 96% 30.25 in 3.0 mi NE 6.9 mph - 0.01 in   Overcast
11:07 PM 32.0 °F 23.6 °F 30.2 °F 93% 30.22 in 2.5 mi NE 10.4 mph - N/A   Overcast
11:21 PM 32.0 °F 24.8 °F 30.2 °F 93% 30.21 in 3.0 mi ENE 8.1 mph - 0.00 in   Overcast
11:53 PM 32.0 °F 25.6 °F 30.9 °F 96% 30.25 in 3.0 mi NE 6.9 mph - 0.01 in   Overcast